Date,TemperatureHighF,TemperatureAvgF,TemperatureLowF,DewpointHighF,DewpointAvgF,DewpointLowF,HumidityHigh,HumidityAvg,HumidityLow,PressureMaxIn,PressureMinIn,WindSpeedMaxMPH,WindSpeedAvgMPH,GustSpeedMaxMPH,PrecipitationSumIn
2013-1-1,25,14,2,11,6,-3,84,70,46,30.37,30.17,8,2,8,0.00
2013-1-2,35,18,13,26,13,8,83,78,68,30.17,30.10,9,3,10,0.00
2013-4-2,59,40,21,28,20,14,78,47,24,30.39,30.30,11,2,11,0.00
2013-4-3,61,44,31,25,23,20,67,45,23,30.41,30.27,15,4,15,0.00
2013-4-4,66,50,31,36,30,23,77,48,31,30.29,30.12,14,4,14,0.00
2013-4-5,71,54,34,38,32,27,76,46,22,30.24,29.80,19,6,19,0.00
2013-4-6,72,60,51,46,39,35,67,48,27,29.87,29.68,20,6,20,0.00
2013-4-7,78,57,42,49,42,36,87,59,24,29.93,29.72,12,4,17,0.22
2013-4-8,62,59,52,56,54,49,95,84,80,29.81,29.68,11,3,11,0.09
2013-4-9,62,56,40,56,51,38,93,84,81,29.93,29.80,21,4,21,0.41
2013-4-10,36,35,32,35,34,31,97,95,89,30.06,29.88,14,2,14,0.27
2013-4-11,36,32,29,32,29,27,98,89,80,29.88,29.73,14,2,14,0.09
2013-4-12,41,35,29,29,28,24,87,75,59,30.09,29.81,14,4,14,0.01
2013-4-13,56,42,25,37,31,22,90,66,45,30.11,29.74,14,4,18,0.00
2013-4-14,70,53,43,51,42,32,84,66,44,29.77,29.42,22,6,27,0.17
2013-4-15,47,40,32,32,28,22,81,60,47,30.17,29.76,11,2,14,0.00
2013-4-16,53,44,35,33,28,25,74,56,35,30.32,30.15,12,4,15,0.00
2013-4-17,47,41,36,41,37,32,96,84,57,30.24,29.79,17,5,21,0.79
2013-4-18,36,33,31,34,30,27,98,89,76,29.99,29.78,20,8,21,0.34
2013-4-19,48,37,28,27,22,19,80,55,33,30.18,29.94,16,7,21,0.00
2013-4-20,49,37,22,28,20,15,85,54,30,30.33,30.18,12,4,17,0.00
2013-4-21,72,55,44,49,37,26,92,54,27,30.22,30.07,14,5,19,0.46
2013-4-22,53,43,32,51,41,28,98,92,83,30.29,30.03,14,3,21,0.71
2013-4-23,40,33,28,28,23,20,84,67,51,30.34,30.22,14,3,16,0.00
2013-4-24,62,42,23,38,25,17,85,57,19,30.28,30.11,20,4,23,0.01
2013-4-25,74,53,31,36,30,26,85,48,17,30.33,30.09,13,3,19,0.00
2013-4-26,77,64,51,46,42,35,56,44,29,30.18,30.10,12,4,14,0.00
2013-4-27,72,72,72,46,46,46,39,39,39,30.16,30.16,4,4,8,0.00
2013-4-28,72,72,72,46,46,46,39,39,39,30.16,30.16,4,4,8,0.00
2013-4-29,72,72,72,46,46,46,39,39,39,30.16,30.16,4,4,8,0.00
2013-4-30,73,71,62,48,45,38,50,40,37,30.16,29.81,11,3,14,0.00
2013-5-1,62,42,35,42,36,33,92,81,41,30.38,29.98,22,7,22,0.07
2013-5-2,35,35,35,33,33,33,92,92,92,30.38,30.38,8,8,11,0.00
2013-5-3,35,35,35,33,33,33,92,92,92,30.38,30.38,8,8,11,0.00
2013-5-4,35,35,35,33,33,33,92,92,92,30.38,30.38,8,8,11,0.00
2013-5-5,35,35,35,33,33,33,92,92,92,30.38,30.38,8,8,11,0.00
2013-5-6,49,44,35,45,41,33,92,89,88,30.38,30.22,8,2,11,0.70
2013-5-7,49,49,49,45,45,45,88,88,88,30.23,30.23,0,0,4,0.00
2013-5-8,49,49,49,45,45,45,88,88,88,30.23,30.23,0,0,4,0.00
2013-5-9,49,49,49,45,45,45,88,88,88,30.23,30.23,0,0,4,0.00
2013-5-10,73,57,49,52,46,43,88,69,35,30.23,30.08,17,1,17,0.91
2013-5-11,62,55,40,46,28,12,80,39,15,30.34,30.11,17,4,24,0.00
2013-5-12,73,54,32,34,22,12,76,36,10,30.36,30.18,6,0,8,0.00
2013-5-13,89,69,48,52,40,27,65,37,14,30.19,29.92,13,2,15,0.00
2013-5-14,105,84,60,61,48,34,80,38,10,29.93,29.73,17,3,19,0.00
2013-5-15,81,74,69,42,40,38,34,29,24,29.90,29.86,1,0,2,0.00
2013-5-17,93,85,72,59,57,55,63,41,29,29.98,29.90,11,3,11,0.00
2013-5-18,90,77,64,66,62,58,83,61,39,29.98,29.78,22,4,22,0.04
2013-5-19,83,67,60,68,61,54,97,83,54,29.88,29.60,11,2,13,0.53
2013-5-20,82,68,56,58,54,50,94,66,37,29.75,29.60,14,4,17,0.01
2013-5-21,62,60,58,56,54,52,82,79,74,29.73,29.69,11,3,13,0.00
2013-5-22,62,55,51,53,49,47,90,79,64,30.07,29.82,12,2,12,0.01
2013-5-23,78,62,51,52,46,36,88,61,26,30.32,30.07,17,2,17,0.00
2013-5-24,79,65,50,50,46,41,73,51,32,30.37,30.11,17,5,19,0.00
2013-5-25,81,68,58,68,59,45,96,73,49,30.20,30.03,13,5,14,0.25
2013-5-26,82,70,64,69,64,60,92,81,64,30.08,29.92,12,5,14,0.00
2013-5-27,83,69,60,66,62,59,99,80,53,30.00,29.69,14,4,21,0.96
2013-5-28,86,74,61,66,63,57,99,72,41,29.83,29.73,11,1,11,0.01
2013-5-29,76,69,63,70,64,60,97,84,71,29.82,29.62,20,4,20,0.72
2013-5-30,81,67,60,64,60,54,99,81,55,29.73,29.59,13,3,13,0.13
2013-5-31,84,71,56,55,50,44,87,53,26,29.81,29.70,18,3,18,0.00
2013-6-1,63,58,54,54,50,46,89,73,54,30.11,29.76,21,4,21,0.05
2013-6-2,77,60,50,48,45,40,87,60,30,30.21,30.09,12,1,12,0.00
2013-6-3,79,65,49,54,48,44,87,57,29,30.13,29.91,17,5,20,0.00
2013-6-4,79,67,58,64,59,53,93,76,58,30.08,29.96,12,3,14,0.17
2013-6-5,80,66,55,62,52,46,96,64,32,30.15,30.05,10,1,10,0.00
2013-6-6,76,64,53,58,50,46,87,63,38,30.10,30.04,5,0,5,0.00
2013-6-7,81,64,50,57,50,47,93,63,32,30.14,29.98,7,1,10,0.00
2013-6-8,69,62,58,63,56,50,99,82,63,29.99,29.75,21,4,21,0.76
2013-6-9,71,64,60,62,59,57,99,86,67,29.93,29.80,11,2,13,0.15
2013-6-10,84,70,55,65,60,54,98,75,47,29.99,29.87,10,2,11,0.00
2013-6-11,93,79,69,72,66,61,83,65,38,29.93,29.80,10,3,11,0.00
2013-6-12,92,80,63,71,64,53,77,59,42,30.11,29.76,17,3,19,0.00
2013-6-13,75,62,59,62,55,52,86,78,60,30.15,30.05,8,0,8,0.01
2013-6-14,95,74,61,72,64,57,97,72,46,30.12,29.85,14,5,18,0.89
2013-6-15,89,76,66,70,66,62,95,73,44,30.05,29.90,21,2,21,0.00
2013-6-16,92,78,67,71,63,54,97,64,30,30.08,30.03,5,0,7,0.00
2013-6-17,96,80,63,64,57,52,85,51,24,30.12,30.03,3,0,8,0.00
2013-6-18,70,67,63,65,57,54,90,72,57,30.17,30.08,4,0,8,0.06
2013-6-19,93,78,63,67,62,56,86,60,35,30.10,29.99,13,3,13,0.00
2013-6-20,95,83,70,72,68,64,83,64,43,30.05,29.90,12,5,17,0.00
2013-6-21,99,87,78,72,71,68,77,59,37,29.97,29.86,12,4,12,0.00
2013-6-22,96,83,70,71,66,59,79,59,40,30.10,29.87,19,5,19,0.02
2013-6-23,88,76,64,71,67,63,99,76,55,30.05,29.83,13,2,13,0.81
2013-6-24,87,78,64,73,70,63,97,78,58,29.99,29.81,13,4,17,0.59
2013-6-25,91,81,70,76,70,65,92,70,48,29.91,29.75,14,3,14,0.00
2013-6-26,98,84,71,74,67,59,98,62,29,29.99,29.75,6,1,10,0.01
2013-6-27,92,74,67,73,67,63,96,80,48,30.09,29.98,7,0,10,0.31
2013-6-28,89,78,66,66,60,50,94,58,28,30.08,29.99,13,2,17,0.00
2013-6-29,84,73,62,61,56,54,79,58,39,30.05,29.99,13,2,14,0.00
2013-6-30,83,70,56,61,54,49,94,62,33,30.20,30.05,8,0,11,0.00
2013-7-1,90,73,53,59,52,45,93,55,23,30.28,30.19,6,0,8,0.00
2013-7-2,93,70,58,63,57,52,91,67,28,30.26,30.15,10,0,11,0.04
2013-7-3,90,74,57,68,57,49,98,62,28,30.16,30.04,8,1,8,0.00
2013-7-4,92,78,62,61,56,51,78,51,26,30.08,29.98,11,3,12,0.00
2013-7-5,92,79,68,66,62,25,72,56,10,30.02,29.92,17,4,17,0.00
2013-7-6,94,80,71,68,64,61,73,61,41,29.98,29.90,11,4,14,0.00
2013-7-7,99,85,74,71,66,62,71,55,34,30.00,29.91,11,2,11,0.00
2013-7-8,96,84,76,74,71,67,82,66,43,30.06,29.99,7,1,8,0.00
2013-7-9,103,89,75,76,72,70,89,61,37,30.06,29.95,9,1,11,0.01
2013-7-10,89,83,79,71,67,62,77,60,42,30.19,30.06,6,0,7,0.00
2013-7-11,86,86,86,63,63,63,46,46,46,30.14,30.14,0,0,1,0.00
2013-7-12,86,86,86,63,63,63,46,46,46,30.14,30.14,0,0,1,0.00
2013-7-13,86,86,86,63,63,63,46,46,46,30.14,30.14,0,0,1,0.00
2013-7-14,86,86,86,63,63,63,46,46,46,30.14,30.14,0,0,1,0.00
2013-7-15,86,86,86,63,63,63,46,46,46,30.14,30.14,0,0,1,0.00
2013-7-16,86,86,86,63,63,63,46,46,46,30.14,30.14,0,0,1,0.00
2013-7-17,86,86,86,63,63,63,46,46,46,30.14,30.14,0,0,1,0.00
2013-7-18,86,86,86,63,63,63,46,46,46,30.14,30.14,0,0,1,0.00
2013-7-19,86,86,86,63,63,63,46,46,46,30.14,30.14,0,0,1,0.00
2013-7-20,86,86,86,63,63,63,46,46,46,30.14,30.14,0,0,1,0.00
2013-7-21,86,86,86,63,63,63,46,46,46,30.14,30.14,0,0,1,0.00
2013-7-22,86,86,86,63,63,63,46,46,46,30.14,30.14,0,0,1,0.00
2013-7-23,86,86,86,63,63,63,46,46,46,30.14,30.14,0,0,1,0.00
2013-7-24,86,86,86,63,63,63,46,46,46,30.14,30.14,0,0,1,0.00
2013-7-25,86,82,70,68,65,62,95,58,46,30.14,29.78,8,1,13,0.71
2013-7-26,81,71,58,68,60,52,99,70,40,30.01,29.88,7,1,9,0.01
2013-7-27,79,62,53,56,50,46,95,67,33,30.04,29.91,2,0,4,0.00
2013-7-28,86,67,48,57,49,45,95,57,26,29.98,29.91,6,0,9,0.00
2013-7-29,67,63,59,65,57,49,99,82,60,29.96,29.91,11,3,13,0.14
2013-7-30,78,70,65,69,66,64,99,87,71,30.02,29.92,5,0,5,0.00
2013-7-31,92,76,62,72,65,62,99,73,42,30.05,29.95,5,0,5,0.00
2013-8-1,90,74,62,71,65,61,99,76,45,30.00,29.77,12,2,14,0.26
2013-8-2,89,77,67,72,67,64,97,72,51,29.88,29.75,7,1,11,0.00
2013-8-3,81,71,63,62,59,56,86,67,44,30.08,29.93,9,1,9,0.00
2013-8-4,83,71,60,67,60,55,86,70,51,30.08,29.92,13,2,14,0.00
2013-8-5,91,77,69,76,71,66,97,84,58,29.93,29.75,6,1,9,0.13
2013-8-6,86,72,66,73,70,65,99,94,61,29.88,29.71,8,1,8,0.27
2013-8-7,90,78,66,74,66,58,98,69,40,29.91,29.74,4,0,4,0.00
2013-8-8,83,73,66,68,64,61,85,74,57,29.93,29.85,6,0,6,0.00
2013-8-9,85,73,61,71,64,59,99,75,46,30.05,29.92,5,0,7,0.00
2013-8-10,89,73,58,68,61,58,99,69,38,30.11,29.97,9,1,11,0.00
2013-8-11,91,78,66,71,66,60,89,68,46,30.02,29.89,11,2,12,0.00
2013-8-12,88,76,68,71,67,60,94,75,41,29.98,29.90,4,0,5,0.00
2013-8-13,82,74,61,64,59,55,91,62,42,30.07,29.98,4,0,6,0.00
2013-8-14,80,75,63,61,58,56,85,57,47,30.09,29.97,8,2,11,0.05
2013-8-15,68,63,60,62,60,58,99,90,79,30.01,29.93,14,4,17,0.54
2013-8-16,79,68,62,61,58,57,89,72,48,30.07,30.00,11,3,13,0.00
2013-8-17,86,71,57,62,58,55,97,67,38,30.09,30.01,8,1,12,0.00
2013-8-18,87,72,55,62,59,54,98,67,40,30.06,29.95,9,2,11,0.00
2013-8-19,91,78,66,70,66,62,88,68,48,29.98,29.83,10,2,13,0.00
2013-8-20,94,82,70,72,69,67,88,67,47,29.87,29.81,11,3,14,0.00
2013-8-21,98,84,73,72,70,67,83,64,43,29.90,29.84,12,2,14,0.00
2013-8-22,104,78,70,89,68,65,89,72,50,30.00,29.86,49,2,49,0.01
2013-8-23,93,79,70,73,70,66,92,74,42,29.99,29.91,11,2,12,0.00